Orbital Elements at Epoch 2459000.5 (2020-May-31.0) TDB
Reference: JPL 6 (heliocentric ecliptic J2000)
Element | Value | Uncertainty (1-sigma) | Units |
e | .1950386165765267 | 5.8031e-08 | |
a | 2.997064254413488 | 5.1606e-08 | au |
q | 2.412520988441722 | 1.6407e-07 | au |
i | 8.734365596767608 | 6.0903e-06 | deg |
node | 248.045661968082 | 5.7027e-05 | deg |
peri | 169.2520562386959 | 6.5702e-05 | deg |
M | 188.4229087684948 | 3.9222e-05 | deg |
tp | 2459903.731984177182 (2022-Nov-20.23198418) | 0.00022607 | TDB |
period | 1895.145278253084 5.19 | 4.8948e-05 1.34e-07 | d yr |
n | .1899590517576798 | 4.9063e-09 | deg/d |
Q | 3.581607520385255 | 6.1671e-08 | au |
|
| | Orbit Determination Parameters
Additional Information
|